Peyton, CO

1:23 AM MST on February 25, 2017 (GMT -0700)
Meadow Lake

Weather History for KFLY - January, 2014

Change the Weather History Date:

Monday, January 27, 2014

  Actual Average (KCOS) Record (KCOS)
Temperature  
Mean Temperature 10 °F -  
Max Temperature 15 °F 42 °F 67 °F (1970)
Min Temperature 4 °F 17 °F -18 °F (1897)
Degree Days  
Heating Degree Days 55    
Moisture  
Dew Point 8 °F    
Average Humidity 87    
Maximum Humidity 93    
Minimum Humidity 75    
Precipitation  
Precipitation 0.00 in - - ()
Sea Level Pressure  
Sea Level Pressure 30.02 in    
Wind  
Wind Speed 9 mph (East)    
Max Wind Speed 15 mph    
Max Gust Speed -    
Visibility 2 miles    
Events Snow    
Averages and records for this station are not official NWS values.
T = Trace of Precipitation, MM = Missing Value Source: NWS Daily Summary

Daily Weather History Graph

Daily Weather History Graph

Search for Another Location

Airport or City:

Trip Planner

Search our weather history database for the weather conditions in past years. The results will help you decide how hot, cold, wet, or windy it might be!

Date:

Astronomy

Jan. 27, 2014 Rise Set
Actual Time 7:08 AM MST 5:13 PM MST
Civil Twilight 6:40 AM MST 5:42 PM MST
Nautical Twilight 6:08 AM MST 6:14 PM MST
Astronomical Twilight 5:36 AM MST 6:46 PM MST
Moon 3:52 AM MST (1/27) 2:02 PM MST (1/27)
Length of Visible Light 11h 02m
Length of Day
10h 05m
Waning Crescent, 14% of the Moon is Illuminated
Jan 27
Waning Crescent
Jan 30
New
Feb 6
First Quarter
Feb 14
Full
Feb 22
Last Quarter

Hourly Weather History & Observations

Time (MST) Temp. Windchill Dew Point Humidity Pressure Visibility Wind Dir Wind Speed Gust Speed Precip Events Conditions
12:11 AM 15.8 °F - 10.2 °F 79% 30.06 in 10.0 mi North - - N/A   Overcast
12:31 AM 15.6 °F - 9.3 °F 76% 30.06 in 10.0 mi North - - N/A   Overcast
12:51 AM 14.9 °F 4.0 °F 9.5 °F 79% 30.06 in 7.0 mi NNE 8.1 mph - N/A Snow Light Snow
1:11 AM 14.9 °F - 9.3 °F 79% 30.06 in 7.0 mi North - - N/A Snow Light Snow
1:31 AM 14.7 °F - 9.9 °F 81% 30.07 in 5.0 mi North - - N/A Snow Light Snow
1:51 AM 13.8 °F - 10.9 °F 88% 30.06 in 1.5 mi North - - N/A Snow Light Snow
2:11 AM 13.6 °F 6.0 °F 10.8 °F 88% 30.07 in 2.5 mi East 4.6 mph - N/A Snow Light Snow
2:31 AM 13.5 °F - 11.1 °F 90% 30.07 in 2.5 mi North - - N/A Snow Light Snow
2:51 AM 13.1 °F - 10.9 °F 91% 30.07 in 2.5 mi North - - N/A Snow Light Snow
3:11 AM 12.9 °F - 10.9 °F 92% 30.06 in 1.8 mi North - - N/A Snow Light Snow
3:31 AM 12.2 °F - 10.4 °F 92% 30.05 in 3.0 mi North - - N/A Snow Light Snow
3:51 AM 12.6 °F - 10.9 °F 93% 30.04 in 3.0 mi North - - N/A Snow Light Snow
4:11 AM 10.8 °F - 8.6 °F 91% 30.04 in 2.0 mi North - - N/A Snow Light Snow
4:31 AM 10.0 °F - 8.2 °F 92% 30.03 in 2.5 mi North - - N/A Snow Light Snow
4:51 AM 9.5 °F - 7.7 °F 92% 30.03 in 2.5 mi North - - N/A Snow Light Snow
5:11 AM 9.3 °F - 7.3 °F 92% 30.02 in 2.5 mi North - - N/A Snow Light Snow
5:31 AM 8.8 °F - 6.8 °F 92% 30.02 in 4.0 mi North - - N/A Snow Light Snow
5:51 AM 7.9 °F - 5.9 °F 92% 30.01 in 4.0 mi North - - N/A Snow Light Snow
6:11 AM 6.6 °F - 4.3 °F 90% 30.00 in 2.5 mi North - - N/A Snow Light Snow
6:31 AM 5.7 °F - 3.4 °F 90% 30.00 in 2.0 mi North - - N/A Snow Light Snow
6:51 AM 6.8 °F - 4.8 °F 92% 29.99 in 2.5 mi North - - N/A Snow Light Snow
7:11 AM 6.6 °F - 4.5 °F 91% 30.00 in 1.2 mi North - - N/A Snow Light Snow
7:31 AM 6.8 °F - 4.6 °F 91% 29.99 in 1.0 mi North - - N/A Snow Light Snow
7:51 AM 6.8 °F - 4.8 °F 92% 30.00 in 0.8 mi North - - N/A Snow Light Snow
8:11 AM 7.7 °F - 5.5 °F 91% 30.01 in 1.0 mi North - - N/A Snow Light Snow
8:16 AM 7.7 °F - 5.7 °F 92% 30.01 in 0.8 mi North - - N/A Snow Snow
11:11 AM 14.4 °F - 7.9 °F 75% 30.02 in 3.0 mi North - - N/A Snow Light Snow
11:31 AM 12.7 °F - 6.8 °F 77% 30.01 in 1.8 mi North - - N/A Snow Light Snow
11:51 AM 14.0 °F - 8.2 °F 78% 30.00 in 2.0 mi North - - N/A Snow Light Snow
12:11 PM 14.4 °F - 8.2 °F 77% 29.99 in 2.5 mi North - - N/A Snow Light Snow
12:31 PM 14.0 °F -0.8 °F 8.1 °F 77% 29.98 in 3.0 mi SE 13.8 mph - N/A Snow Light Snow
12:51 PM 12.9 °F - 8.1 °F 81% 29.97 in 3.0 mi North - - N/A Snow Light Snow
1:11 PM 13.8 °F - 9.1 °F 82% 29.96 in 1.5 mi North - - N/A Snow Light Snow
1:31 PM 13.3 °F -2.4 °F 8.8 °F 82% 29.95 in 1.2 mi SE 15.0 mph - N/A Snow Light Snow
1:51 PM 13.6 °F - 8.8 °F 81% 29.95 in 1.5 mi North - - N/A Snow Light Snow
2:11 PM 14.4 °F - 9.1 °F 80% 29.94 in 1.8 mi North - - N/A Snow Light Snow
2:31 PM 13.1 °F - 8.2 °F 81% 29.95 in 2.5 mi North - - N/A Snow Light Snow
2:51 PM 13.3 °F - 8.1 °F 80% 29.95 in 3.0 mi North - - N/A Snow Light Snow
3:11 PM 12.9 °F - 7.7 °F 80% 29.95 in 2.0 mi North - - N/A Snow Light Snow
3:31 PM 13.1 °F - 7.7 °F 79% 29.96 in 3.0 mi North - - N/A Snow Light Snow
3:51 PM 12.7 °F - 7.9 °F 81% 29.96 in 2.5 mi North - - N/A Snow Light Snow
4:11 PM 12.7 °F - 8.2 °F 82% 29.96 in 3.0 mi North - - N/A Snow Light Snow
4:31 PM 12.0 °F - 7.7 °F 83% 29.96 in 1.2 mi North - - N/A Snow Light Snow
4:51 PM 11.8 °F - 7.7 °F 83% 29.98 in 0.8 mi North - - N/A Snow Light Snow
5:11 PM 11.3 °F - 7.7 °F 85% 29.98 in 0.5 mi North - - N/A Snow Snow
5:31 PM 11.3 °F - 8.8 °F 90% 29.99 in 0.8 mi North - - N/A Snow Snow
5:51 PM 11.1 °F - 8.6 °F 90% 29.99 in 0.8 mi North - - N/A Snow Snow
6:11 PM 10.8 °F - 8.2 °F 90% 29.99 in 1.8 mi North - - N/A Snow Light Snow
6:31 PM 10.4 °F - 8.2 °F 91% 29.99 in 2.0 mi North - - N/A Snow Light Snow
6:51 PM 10.4 °F - 8.2 °F 91% 30.00 in 1.0 mi North - - N/A Snow Light Snow
7:11 PM 10.2 °F - 7.9 °F 90% 30.02 in 0.8 mi North - - N/A Snow Snow
7:31 PM 10.0 °F - 7.5 °F 90% 30.02 in 1.5 mi North - - N/A Snow Light Snow
7:51 PM 10.0 °F - 7.5 °F 90% 30.04 in 1.8 mi North - - N/A Snow Light Snow
8:11 PM 10.0 °F - 7.7 °F 90% 30.04 in 1.8 mi North - - N/A Snow Light Snow
8:31 PM 9.7 °F - 7.3 °F 90% 30.04 in 2.0 mi North - - N/A Snow Light Snow
8:51 PM 9.5 °F - 7.0 °F 90% 30.05 in 1.5 mi North - - N/A Snow Light Snow
9:11 PM 9.3 °F - 6.8 °F 89% 30.06 in 2.0 mi North - - N/A Snow Light Snow
9:31 PM 9.3 °F - 6.8 °F 89% 30.06 in 2.0 mi North - - N/A Snow Light Snow
9:51 PM 9.1 °F - 6.8 °F 90% 30.06 in 1.8 mi North - - N/A Snow Light Snow
10:11 PM 9.1 °F - 6.6 °F 89% 30.05 in 1.8 mi North - - N/A Snow Light Snow
10:31 PM 9.0 °F - 6.6 °F 90% 30.06 in 2.0 mi North - - N/A Snow Light Snow
10:51 PM 8.6 °F - 6.1 °F 89% 30.07 in 2.5 mi North - - N/A Snow Light Snow
11:11 PM 8.2 °F - 5.7 °F 89% 30.07 in 2.0 mi North - - N/A Snow Light Snow
11:31 PM 7.3 °F - 4.6 °F 89% 30.07 in 1.8 mi North - - N/A Snow Light Snow
11:51 PM 4.8 °F - 1.9 °F 88% 30.07 in 2.5 mi North - - N/A Snow Light Snow